Regional Weather Roundup
Issued by NWS Albany, NY

Home | Current Version | Previous Version | Graphics & Text | Print | Product List | Glossary Off
Versions: 1 2 3 4 5 6 7 8 9 10 11 12 13 14 15 16 17 18 19 20 21 22 23 24 25 26 27 28 29 30 31 32 33 34 35 36 37 38 39 40 41 42 43 44 45 46 47 48 49 50

000
ASUS41 KALY 202310
RWRALY

NEW YORK STATE HOURLY WEATHER ROUNDUP
NATIONAL WEATHER SERVICE ALBANY NY
600 PM EST SAT DEC 20 2014

NOTE: "FAIR" INDICATES FEW OR NO CLOUDS BELOW 12,000 FEET WITH NO
SIGNIFICANT WEATHER AND/OR NO OBSTRUCTIONS TO VISIBILITY.

NYZ032-033-038>043-046>054-057>066-NYZ062>081-210000-
EAST


CITY           SKY/WX    TMP DP  RH WIND       PRES   REMARKS
ALBANY         MOCLDY    29  18  63 CALM      30.30R
GLENS FALLS    CLEAR     22  16  78 CALM      30.29S
POUGHKEEPSIE   CLOUDY    30  19  63 N3        30.29R
MONTGOMERY     CLOUDY    29  21  72 N3        30.27R
WHITE PLAINS   CLOUDY    30  20  66 N3        30.26R
ISLIP          CLOUDY    32  23  69 CALM      30.26R
NEW YORK CITY  CLOUDY    33  21  61 NE6       30.28R WCI  28
CENTRAL PARK   CLOUDY    33  20  58 VRB3      30.30R
$$

NYZ005>009-017-018-044>046-055-056-210000-
CENTRAL


CITY           SKY/WX    TMP DP  RH WIND       PRES   REMARKS
FULTON         CLOUDY    27  20  75 CALM      30.29R
SYRACUSE       MOCLDY    25  20  81 CALM      30.29R
ROME           MOCLDY    23  17  78 E5        30.31R WCI  17
ELMIRA         CLOUDY    29  21  72 E6        30.25R WCI  23
BINGHAMTON     CLOUDY    25  20  81 CALM      30.20R
MONTICELLO     CLOUDY    27  21  80 CALM      30.22R
$$

NYZ026>034-041>043-210000-
NORTH


CITY           SKY/WX    TMP DP  RH WIND       PRES   REMARKS
WATERTOWN      CLEAR     23  14  68 NE3       30.29R
FORT DRUM      NOT AVBL
MASSENA        MOCLDY    17  15  92 E7        30.33R WCI   8
SARANAC LAKE   CLEAR     16  32 100 CALM      30.17S
PLATTSBURGH    MOCLDY    17  13  84 NW7       30.32S WCI   8
$$

NYZ001>004-010>016-019>021-210000-
WEST


CITY           SKY/WX    TMP DP  RH WIND       PRES   REMARKS
NIAGARA FALLS  MOCLDY    29  22  75 N6        30.26S WCI  23
BUFFALO        FAIR      28  21  75 SW3       30.26R
DUNKIRK        CLOUDY    30  23  75 SW3       30.27R
JAMESTOWN      CLOUDY    25  18  74 W3        30.22R
WELLSVILLE     CLOUDY    25  19  78 CALM      30.19R
ROCHESTER      CLOUDY    30  20  66 CALM      30.28R
PENN YAN       CLOUDY    28  21  75 CALM      30.26R
$$

             KEY
       WCI = WIND CHILL INDEX
       VSB = VISIBILITY
       HX  = HEAT INDEX
$$


USA.gov is the U.S. government's official web portal to all federal, state and local government web resources and services.